Data supplied by UK-AIR on 21/3/2020
All Data GMT hour ending 
Status: R =Ratified P=Provisional,P*=As supplied
,,Glasgow Great Western Road,,,,,,,,,,,,,,,,,,,,,,,
Date,time,"Nitric oxide",status,unit,"Nitrogen dioxide",status,unit,"Nitrogen oxides as nitrogen dioxide",status,unit
 
01-01-2019,01:00,3.51907,R,ugm-3,11.03603,R,ugm-3,16.43185,R,ugm-3
01-01-2019,02:00,2.90910,R,ugm-3,10.93971,R,ugm-3,15.40026,R,ugm-3
01-01-2019,03:00,2.74487,R,ugm-3,10.21518,R,ugm-3,14.42392,R,ugm-3
01-01-2019,04:00,3.90616,R,ugm-3,17.88472,R,ugm-3,23.87408,R,ugm-3
01-01-2019,05:00,5.87684,R,ugm-3,19.44997,R,ugm-3,28.46100,R,ugm-3
01-01-2019,06:00,1.44282,R,ugm-3,10.77477,R,ugm-3,12.98706,R,ugm-3
01-01-2019,07:00,2.46335,R,ugm-3,14.18375,R,ugm-3,17.96083,R,ugm-3
01-01-2019,08:00,12.80940,R,ugm-3,50.65510,R,ugm-3,70.29591,R,ugm-3
01-01-2019,09:00,39.83583,R,ugm-3,67.79508,R,ugm-3,128.87583,R,ugm-3
01-01-2019,10:00,18.47510,R,ugm-3,47.49423,R,ugm-3,75.82232,R,ugm-3
01-01-2019,11:00,39.65988,R,ugm-3,65.08061,R,ugm-3,125.89157,R,ugm-3
01-01-2019,12:00,11.54254,R,ugm-3,42.48427,R,ugm-3,60.18258,R,ugm-3
01-01-2019,13:00,18.75662,R,ugm-3,46.67571,R,ugm-3,75.43547,R,ugm-3
01-01-2019,14:00,16.22290,R,ugm-3,42.71321,R,ugm-3,67.58797,R,ugm-3
01-01-2019,15:00,1.51320,R,ugm-3,9.56157,R,ugm-3,11.88178,R,ugm-3
01-01-2019,16:00,2.04106,R,ugm-3,14.33387,R,ugm-3,17.46345,R,ugm-3
01-01-2019,17:00,2.49854,R,ugm-3,14.62717,R,ugm-3,18.45820,R,ugm-3
01-01-2019,18:00,1.61877,R,ugm-3,15.14716,R,ugm-3,17.62924,R,ugm-3
01-01-2019,19:00,5.41936,R,ugm-3,24.90414,R,ugm-3,33.21371,R,ugm-3
01-01-2019,20:00,7.24928,R,ugm-3,35.25116,R,ugm-3,46.36656,R,ugm-3
01-01-2019,21:00,24.91499,R,ugm-3,62.98608,R,ugm-3,101.18853,R,ugm-3
01-01-2019,22:00,30.47512,R,ugm-3,73.02940,R,ugm-3,119.75726,R,ugm-3
01-01-2019,23:00,50.42822,R,ugm-3,78.85409,R,ugm-3,156.17629,R,ugm-3
01-01-2019,24:00,47.33144,R,ugm-3,72.54960,R,ugm-3,145.12347,R,ugm-3
02-01-2019,01:00,37.30004,R,ugm-3,68.99975,R,ugm-3,126.19234,R,ugm-3
02-01-2019,02:00,36.04339,R,ugm-3,67.08194,R,ugm-3,122.34770,R,ugm-3
02-01-2019,03:00,14.19891,R,ugm-3,56.26186,R,ugm-3,78.03322,R,ugm-3
02-01-2019,04:00,7.08184,R,ugm-3,48.74238,R,ugm-3,59.60105,R,ugm-3
02-01-2019,05:00,4.40413,R,ugm-3,40.98312,R,ugm-3,47.73602,R,ugm-3
02-01-2019,06:00,4.47460,R,ugm-3,36.12906,R,ugm-3,42.99002,R,ugm-3
02-01-2019,07:00,9.47769,R,ugm-3,38.88795,R,ugm-3,53.42020,R,ugm-3
02-01-2019,08:00,8.94919,R,ugm-3,41.79537,R,ugm-3,55.51727,R,ugm-3
02-01-2019,09:00,8.17406,R,ugm-3,38.56899,R,ugm-3,51.10238,R,ugm-3
02-01-2019,10:00,13.14192,R,ugm-3,36.85663,R,ugm-3,57.00730,R,ugm-3
02-01-2019,11:00,25.75535,R,ugm-3,40.74969,R,ugm-3,80.24067,R,ugm-3
02-01-2019,12:00,42.94906,R,ugm-3,48.65696,R,ugm-3,114.51127,R,ugm-3
02-01-2019,13:00,60.28372,R,ugm-3,56.18257,R,ugm-3,148.61631,R,ugm-3
02-01-2019,14:00,62.78526,R,ugm-3,57.20330,R,ugm-3,153.47269,R,ugm-3
02-01-2019,15:00,97.73643,R,ugm-3,68.73192,R,ugm-3,218.59236,R,ugm-3
02-01-2019,16:00,111.44208,R,ugm-3,77.24148,R,ugm-3,248.11695,R,ugm-3
02-01-2019,17:00,91.21832,R,ugm-3,81.87183,R,ugm-3,221.73797,R,ugm-3
02-01-2019,18:00,65.18111,R,ugm-3,70.74780,R,ugm-3,170.69077,R,ugm-3
02-01-2019,19:00,74.41216,R,ugm-3,71.49398,R,ugm-3,185.59104,R,ugm-3
02-01-2019,20:00,82.12819,R,ugm-3,73.34906,R,ugm-3,199.27720,R,ugm-3
02-01-2019,21:00,101.64729,R,ugm-3,74.87630,R,ugm-3,230.73331,R,ugm-3
02-01-2019,22:00,86.53232,R,ugm-3,69.18991,R,ugm-3,201.87095,R,ugm-3
02-01-2019,23:00,100.62554,R,ugm-3,74.78739,R,ugm-3,229.07773,R,ugm-3
02-01-2019,24:00,107.21411,R,ugm-3,76.16377,R,ugm-3,240.55645,R,ugm-3
03-01-2019,01:00,84.42579,R,ugm-3,72.02462,R,ugm-3,201.47569,R,ugm-3
03-01-2019,02:00,43.10654,R,ugm-3,59.82654,R,ugm-3,125.92231,R,ugm-3
03-01-2019,03:00,36.58059,R,ugm-3,54.67809,R,ugm-3,110.76754,R,ugm-3
03-01-2019,04:00,7.40783,R,ugm-3,48.21348,R,ugm-3,59.57200,R,ugm-3
03-01-2019,05:00,1.16409,R,ugm-3,34.09055,R,ugm-3,35.87546,R,ugm-3
03-01-2019,06:00,0.63496,R,ugm-3,34.84676,R,ugm-3,35.82035,R,ugm-3
03-01-2019,07:00,4.05667,R,ugm-3,40.07077,R,ugm-3,46.29091,R,ugm-3
03-01-2019,08:00,16.47361,R,ugm-3,58.50532,R,ugm-3,83.76451,R,ugm-3
03-01-2019,09:00,50.05579,R,ugm-3,65.92407,R,ugm-3,142.67521,R,ugm-3
03-01-2019,10:00,45.43471,R,ugm-3,61.93286,R,ugm-3,131.59845,R,ugm-3
03-01-2019,11:00,54.50049,R,ugm-3,65.94238,R,ugm-3,149.50863,R,ugm-3
03-01-2019,12:00,70.48024,R,ugm-3,65.02675,R,ugm-3,173.09495,R,ugm-3
03-01-2019,13:00,74.00779,R,ugm-3,65.29408,R,ugm-3,178.77110,R,ugm-3
03-01-2019,14:00,65.08311,R,ugm-3,68.17718,R,ugm-3,167.96988,R,ugm-3
03-01-2019,15:00,87.58881,R,ugm-3,73.73259,R,ugm-3,208.03357,R,ugm-3
03-01-2019,16:00,90.41085,R,ugm-3,74.91636,R,ugm-3,213.54439,R,ugm-3
03-01-2019,17:00,120.00690,R,ugm-3,83.92819,R,ugm-3,267.93621,R,ugm-3
03-01-2019,18:00,126.70923,R,ugm-3,82.19321,R,ugm-3,276.47799,R,ugm-3
03-01-2019,19:00,105.57927,R,ugm-3,73.70173,R,ugm-3,235.58768,R,ugm-3
03-01-2019,20:00,98.45364,R,ugm-3,75.92044,R,ugm-3,226.88058,R,ugm-3
03-01-2019,21:00,86.35417,R,ugm-3,71.54767,R,ugm-3,203.95556,R,ugm-3
03-01-2019,22:00,99.19442,R,ugm-3,73.57221,R,ugm-3,225.66820,R,ugm-3
03-01-2019,23:00,80.88649,R,ugm-3,71.22424,R,ugm-3,195.24846,R,ugm-3
03-01-2019,24:00,50.72602,R,ugm-3,65.55769,R,ugm-3,143.33651,R,ugm-3
04-01-2019,01:00,39.60299,R,ugm-3,60.78318,R,ugm-3,121.50691,R,ugm-3
04-01-2019,02:00,81.47808,R,ugm-3,71.25172,R,ugm-3,196.18304,R,ugm-3
04-01-2019,03:00,90.76666,R,ugm-3,71.37235,R,ugm-3,210.54595,R,ugm-3
04-01-2019,04:00,36.58921,R,ugm-3,54.23310,R,ugm-3,110.33576,R,ugm-3
04-01-2019,05:00,9.18262,R,ugm-3,42.98661,R,ugm-3,57.06643,R,ugm-3
04-01-2019,06:00,21.40257,R,ugm-3,48.40792,R,ugm-3,81.22473,R,ugm-3
04-01-2019,07:00,30.47923,R,ugm-3,51.93517,R,ugm-3,98.66934,R,ugm-3
04-01-2019,08:00,49.83337,R,ugm-3,53.35136,R,ugm-3,129.76146,R,ugm-3
04-01-2019,09:00,87.76465,R,ugm-3,61.61246,R,ugm-3,196.18304,R,ugm-3
04-01-2019,10:00,94.29843,R,ugm-3,59.79364,R,ugm-3,204.38255,R,ugm-3
04-01-2019,11:00,93.66271,R,ugm-3,67.64718,R,ugm-3,211.26134,R,ugm-3
04-01-2019,12:00,40.89797,R,ugm-3,55.22059,R,ugm-3,117.92994,R,ugm-3
04-01-2019,13:00,34.15228,R,ugm-3,58.29985,R,ugm-3,110.66594,R,ugm-3
04-01-2019,14:00,38.77891,R,ugm-3,55.71827,R,ugm-3,115.17843,R,ugm-3
04-01-2019,15:00,25.42879,R,ugm-3,55.55180,R,ugm-3,94.54206,R,ugm-3
04-01-2019,16:00,31.96258,R,ugm-3,50.81637,R,ugm-3,99.82497,R,ugm-3
04-01-2019,17:00,35.88285,R,ugm-3,57.29725,R,ugm-3,112.31685,R,ugm-3
04-01-2019,18:00,26.45301,R,ugm-3,62.12584,R,ugm-3,102.68655,R,ugm-3
04-01-2019,19:00,17.30571,R,ugm-3,49.95708,R,ugm-3,76.49212,R,ugm-3
04-01-2019,20:00,14.40965,R,ugm-3,31.00976,R,ugm-3,53.10424,R,ugm-3
04-01-2019,21:00,7.91118,R,ugm-3,32.82945,R,ugm-3,44.95976,R,ugm-3
04-01-2019,22:00,8.22904,R,ugm-3,22.43662,R,ugm-3,35.05430,R,ugm-3
04-01-2019,23:00,4.45004,R,ugm-3,17.00483,R,ugm-3,23.82812,R,ugm-3
04-01-2019,24:00,2.64883,R,ugm-3,15.36421,R,ugm-3,19.42570,R,ugm-3
05-01-2019,01:00,2.21590,R,ugm-3,12.72170,R,ugm-3,16.11937,R,ugm-3
05-01-2019,02:00,1.36726,R,ugm-3,8.23461,R,ugm-3,10.33105,R,ugm-3
05-01-2019,03:00,1.09617,R,ugm-3,9.08991,R,ugm-3,10.77067,R,ugm-3
05-01-2019,04:00,0.81328,R,ugm-3,8.31470,R,ugm-3,9.56171,R,ugm-3
05-01-2019,05:00,0.88400,R,ugm-3,6.39283,R,ugm-3,7.74829,R,ugm-3
05-01-2019,06:00,1.52049,R,ugm-3,10.85719,R,ugm-3,13.18857,R,ugm-3
05-01-2019,07:00,1.09617,R,ugm-3,9.96914,R,ugm-3,11.64990,R,ugm-3
05-01-2019,08:00,8.87539,R,ugm-3,28.48478,R,ugm-3,42.09352,R,ugm-3
05-01-2019,09:00,23.19625,R,ugm-3,48.18035,R,ugm-3,83.74743,R,ugm-3
05-01-2019,10:00,20.11992,R,ugm-3,57.29351,R,ugm-3,88.14362,R,ugm-3
05-01-2019,11:00,19.44807,R,ugm-3,53.76261,R,ugm-3,83.58257,R,ugm-3
05-01-2019,12:00,38.61327,R,ugm-3,66.36001,R,ugm-3,125.56619,R,ugm-3
05-01-2019,13:00,27.19194,R,ugm-3,58.53941,R,ugm-3,100.23314,R,ugm-3
05-01-2019,14:00,22.13544,R,ugm-3,45.30079,R,ugm-3,79.24133,R,ugm-3
05-01-2019,15:00,21.49896,R,ugm-3,39.68243,R,ugm-3,72.64705,R,ugm-3
05-01-2019,16:00,11.66884,R,ugm-3,32.93897,R,ugm-3,50.83095,R,ugm-3
05-01-2019,17:00,23.76201,R,ugm-3,47.86238,R,ugm-3,84.29695,R,ugm-3
05-01-2019,18:00,22.41832,R,ugm-3,55.63772,R,ugm-3,90.01200,R,ugm-3
05-01-2019,19:00,11.49204,R,ugm-3,59.91692,R,ugm-3,77.53781,R,ugm-3
05-01-2019,20:00,35.28941,R,ugm-3,71.78623,R,ugm-3,125.89590,R,ugm-3
05-01-2019,21:00,36.17342,R,ugm-3,72.73877,R,ugm-3,128.20390,R,ugm-3
05-01-2019,22:00,11.95173,R,ugm-3,55.14561,R,ugm-3,73.47133,R,ugm-3
05-01-2019,23:00,10.25444,R,ugm-3,44.72437,R,ugm-3,60.44762,R,ugm-3
05-01-2019,24:00,16.90214,R,ugm-3,45.96145,R,ugm-3,71.87771,R,ugm-3
06-01-2019,01:00,11.94244,R,ugm-3,43.66006,R,ugm-3,61.97155,R,ugm-3
06-01-2019,02:00,8.56740,R,ugm-3,36.90900,R,ugm-3,50.04550,R,ugm-3
06-01-2019,03:00,3.00921,R,ugm-3,20.57331,R,ugm-3,25.18737,R,ugm-3
06-01-2019,04:00,4.63773,R,ugm-3,36.78848,R,ugm-3,43.89957,R,ugm-3
06-01-2019,05:00,1.52231,R,ugm-3,22.35933,R,ugm-3,24.69351,R,ugm-3
06-01-2019,06:00,1.20368,R,ugm-3,15.82395,R,ugm-3,17.66957,R,ugm-3
06-01-2019,07:00,1.66392,R,ugm-3,15.17314,R,ugm-3,17.72445,R,ugm-3
06-01-2019,08:00,12.63869,R,ugm-3,34.17841,R,ugm-3,53.55747,R,ugm-3
06-01-2019,09:00,11.29340,R,ugm-3,33.33282,R,ugm-3,50.64912,R,ugm-3
06-01-2019,10:00,10.05431,R,ugm-3,28.86729,R,ugm-3,44.28369,R,ugm-3
06-01-2019,11:00,15.32928,R,ugm-3,33.18074,R,ugm-3,56.68531,R,ugm-3
06-01-2019,12:00,20.95828,R,ugm-3,40.90232,R,ugm-3,73.03790,R,ugm-3
06-01-2019,13:00,22.51599,R,ugm-3,48.06202,R,ugm-3,82.58606,R,ugm-3
06-01-2019,14:00,25.84382,R,ugm-3,42.30092,R,ugm-3,81.92756,R,ugm-3
06-01-2019,15:00,48.43062,R,ugm-3,54.91522,R,ugm-3,129.17447,R,ugm-3
06-01-2019,16:00,54.80307,R,ugm-3,59.24700,R,ugm-3,143.27720,R,ugm-3
06-01-2019,17:00,45.95244,R,ugm-3,60.03203,R,ugm-3,130.49146,R,ugm-3
06-01-2019,18:00,59.44080,R,ugm-3,61.40970,R,ugm-3,152.55099,R,ugm-3
06-01-2019,19:00,55.54652,R,ugm-3,57.83269,R,ugm-3,143.00283,R,ugm-3
06-01-2019,20:00,23.25944,R,ugm-3,45.22097,R,ugm-3,80.88495,R,ugm-3
06-01-2019,21:00,16.92240,R,ugm-3,38.47530,R,ugm-3,64.42261,R,ugm-3
06-01-2019,22:00,8.70902,R,ugm-3,25.00361,R,ugm-3,38.35725,R,ugm-3
06-01-2019,23:00,4.14209,R,ugm-3,15.43404,R,ugm-3,21.78516,R,ugm-3
06-01-2019,24:00,3.36324,R,ugm-3,11.36032,R,ugm-3,16.51721,R,ugm-3
07-01-2019,01:00,0.80342,R,ugm-3,7.75474,R,ugm-3,8.98663,R,ugm-3
07-01-2019,02:00,0.28356,R,ugm-3,4.82568,R,ugm-3,5.26047,R,ugm-3
07-01-2019,03:00,0.38989,R,ugm-3,5.04621,R,ugm-3,5.64404,R,ugm-3
07-01-2019,04:00,0.53167,R,ugm-3,5.15760,R,ugm-3,5.97282,R,ugm-3
07-01-2019,05:00,0.56712,R,ugm-3,4.28131,R,ugm-3,5.15087,R,ugm-3
07-01-2019,06:00,1.41780,R,ugm-3,5.05922,R,ugm-3,7.23314,R,ugm-3
07-01-2019,07:00,1.70135,R,ugm-3,5.33679,R,ugm-3,7.94550,R,ugm-3
07-01-2019,08:00,4.43061,R,ugm-3,10.63179,R,ugm-3,17.42530,R,ugm-3
07-01-2019,09:00,7.12442,R,ugm-3,13.02213,R,ugm-3,23.94608,R,ugm-3
07-01-2019,10:00,8.25865,R,ugm-3,14.02282,R,ugm-3,26.68591,R,ugm-3
07-01-2019,11:00,10.20812,R,ugm-3,26.21232,R,ugm-3,41.86455,R,ugm-3
07-01-2019,12:00,9.35744,R,ugm-3,21.70824,R,ugm-3,36.05612,R,ugm-3
07-01-2019,13:00,9.81823,R,ugm-3,22.15244,R,ugm-3,37.20684,R,ugm-3
07-01-2019,14:00,9.39289,R,ugm-3,23.18819,R,ugm-3,37.59042,R,ugm-3
07-01-2019,15:00,10.81069,R,ugm-3,24.30206,R,ugm-3,40.87821,R,ugm-3
07-01-2019,16:00,10.38535,R,ugm-3,18.15947,R,ugm-3,34.08344,R,ugm-3
07-01-2019,17:00,13.36271,R,ugm-3,22.52607,R,ugm-3,43.01528,R,ugm-3
07-01-2019,18:00,21.79859,R,ugm-3,41.70200,R,ugm-3,75.12605,R,ugm-3
07-01-2019,19:00,8.15232,R,ugm-3,19.11755,R,ugm-3,31.61760,R,ugm-3
07-01-2019,20:00,6.84086,R,ugm-3,16.68991,R,ugm-3,27.17908,R,ugm-3
07-01-2019,21:00,8.96755,R,ugm-3,17.15519,R,ugm-3,30.90524,R,ugm-3
07-01-2019,22:00,6.09652,R,ugm-3,14.76261,R,ugm-3,24.11047,R,ugm-3
07-01-2019,23:00,3.61538,R,ugm-3,10.07351,R,ugm-3,15.61701,R,ugm-3
07-01-2019,24:00,3.15459,R,ugm-3,9.41012,R,ugm-3,14.24710,R,ugm-3
08-01-2019,01:00,0.85169,R,ugm-3,5.04145,R,ugm-3,6.34736,R,ugm-3
08-01-2019,02:00,0.42585,R,ugm-3,2.84903,R,ugm-3,3.50199,R,ugm-3
08-01-2019,03:00,0.21292,R,ugm-3,1.58867,R,ugm-3,1.91515,R,ugm-3
08-01-2019,04:00,0.67426,R,ugm-3,2.74174,R,ugm-3,3.77559,R,ugm-3
08-01-2019,05:00,1.20657,R,ugm-3,5.53697,R,ugm-3,7.38701,R,ugm-3
08-01-2019,06:00,1.95180,R,ugm-3,10.46806,R,ugm-3,13.46078,R,ugm-3
08-01-2019,07:00,9.43960,R,ugm-3,23.50086,R,ugm-3,37.97471,R,ugm-3
08-01-2019,08:00,40.17155,R,ugm-3,59.55148,R,ugm-3,121.14700,R,ugm-3
08-01-2019,09:00,66.43210,R,ugm-3,84.12741,R,ugm-3,185.98854,R,ugm-3
08-01-2019,10:00,67.95805,R,ugm-3,86.60289,R,ugm-3,190.80378,R,ugm-3
08-01-2019,11:00,46.23987,R,ugm-3,67.81153,R,ugm-3,138.71167,R,ugm-3
08-01-2019,12:00,34.49359,R,ugm-3,56.76665,R,ugm-3,109.65609,R,ugm-3
08-01-2019,13:00,32.04497,R,ugm-3,44.54332,R,ugm-3,93.67826,R,ugm-3
08-01-2019,14:00,28.21235,R,ugm-3,39.42148,R,ugm-3,82.67981,R,ugm-3
08-01-2019,15:00,33.18056,R,ugm-3,48.00037,R,ugm-3,98.87652,R,ugm-3
08-01-2019,16:00,29.77379,R,ugm-3,52.40324,R,ugm-3,98.05574,R,ugm-3
08-01-2019,17:00,34.95493,R,ugm-3,59.78015,R,ugm-3,113.37695,R,ugm-3
08-01-2019,18:00,47.62387,R,ugm-3,78.05583,R,ugm-3,151.07807,R,ugm-3
08-01-2019,19:00,42.01689,R,ugm-3,81.94728,R,ugm-3,146.37227,R,ugm-3
08-01-2019,20:00,48.75946,R,ugm-3,81.89591,R,ugm-3,156.65937,R,ugm-3
08-01-2019,21:00,56.77957,R,ugm-3,78.02524,R,ugm-3,165.08604,R,ugm-3
08-01-2019,22:00,49.93054,R,ugm-3,82.34374,R,ugm-3,158.90283,R,ugm-3
08-01-2019,23:00,33.28702,R,ugm-3,66.82449,R,ugm-3,117.86388,R,ugm-3
08-01-2019,24:00,42.22981,R,ugm-3,73.30358,R,ugm-3,138.05504,R,ugm-3
09-01-2019,01:00,54.62084,R,ugm-3,73.03154,R,ugm-3,156.78233,R,ugm-3
09-01-2019,02:00,58.22117,R,ugm-3,68.89534,R,ugm-3,158.16656,R,ugm-3
09-01-2019,03:00,25.36814,R,ugm-3,59.67453,R,ugm-3,98.57179,R,ugm-3
09-01-2019,04:00,20.60717,R,ugm-3,62.65796,R,ugm-3,94.25518,R,ugm-3
09-01-2019,05:00,21.60200,R,ugm-3,58.72839,R,ugm-3,91.85099,R,ugm-3
09-01-2019,06:00,38.62068,R,ugm-3,57.65887,R,ugm-3,116.87642,R,ugm-3
09-01-2019,07:00,60.75562,R,ugm-3,59.12627,R,ugm-3,152.28358,R,ugm-3
09-01-2019,08:00,117.92274,R,ugm-3,68.62236,R,ugm-3,249.43471,R,ugm-3
09-01-2019,09:00,206.46251,R,ugm-3,80.77561,R,ugm-3,397.34704,R,ugm-3
09-01-2019,10:00,289.67283,R,ugm-3,98.09531,R,ugm-3,542.25413,R,ugm-3
09-01-2019,11:00,278.94289,R,ugm-3,93.62027,R,ugm-3,521.32675,R,ugm-3
09-01-2019,12:00,299.94089,R,ugm-3,102.34967,R,ugm-3,562.25262,R,ugm-3
09-01-2019,13:00,169.19196,R,ugm-3,88.09069,R,ugm-3,347.51474,R,ugm-3
09-01-2019,14:00,76.49523,R,ugm-3,76.30089,R,ugm-3,193.59194,R,ugm-3
09-01-2019,15:00,85.37763,R,ugm-3,79.56537,R,ugm-3,210.47591,R,ugm-3
09-01-2019,16:00,109.82200,R,ugm-3,81.97223,R,ugm-3,250.36360,R,ugm-3
09-01-2019,17:00,140.30639,R,ugm-3,85.88205,R,ugm-3,301.01552,R,ugm-3
09-01-2019,18:00,122.54159,R,ugm-3,89.78946,R,ugm-3,277.68395,R,ugm-3
09-01-2019,19:00,90.28072,R,ugm-3,81.44561,R,ugm-3,219.87410,R,ugm-3
09-01-2019,20:00,77.09923,R,ugm-3,76.52221,R,ugm-3,194.73939,R,ugm-3
09-01-2019,21:00,44.69624,R,ugm-3,70.25406,R,ugm-3,138.78733,R,ugm-3
09-01-2019,22:00,37.73244,R,ugm-3,68.41902,R,ugm-3,126.27462,R,ugm-3
09-01-2019,23:00,31.72793,R,ugm-3,68.55544,R,ugm-3,117.20426,R,ugm-3
09-01-2019,24:00,27.46438,R,ugm-3,67.06062,R,ugm-3,109.17208,R,ugm-3
10-01-2019,01:00,16.74254,R,ugm-3,58.93711,R,ugm-3,84.60865,R,ugm-3
10-01-2019,02:00,7.25668,R,ugm-3,42.67212,R,ugm-3,53.79888,R,ugm-3
10-01-2019,03:00,1.28059,R,ugm-3,24.93589,R,ugm-3,26.89944,R,ugm-3
10-01-2019,04:00,1.88531,R,ugm-3,17.84307,R,ugm-3,20.73385,R,ugm-3
10-01-2019,05:00,6.58082,R,ugm-3,31.97745,R,ugm-3,42.06789,R,ugm-3
10-01-2019,06:00,9.35543,R,ugm-3,31.65162,R,ugm-3,45.99641,R,ugm-3
10-01-2019,07:00,19.49344,R,ugm-3,43.93389,R,ugm-3,73.82341,R,ugm-3
10-01-2019,08:00,31.76577,R,ugm-3,53.21640,R,ugm-3,101.92323,R,ugm-3
10-01-2019,09:00,73.70512,R,ugm-3,63.27933,R,ugm-3,176.29227,R,ugm-3
10-01-2019,10:00,84.76800,R,ugm-3,76.32600,R,ugm-3,206.30178,R,ugm-3
10-01-2019,11:00,41.76149,R,ugm-3,66.20791,R,ugm-3,130.24130,R,ugm-3
10-01-2019,12:00,45.92341,R,ugm-3,71.28457,R,ugm-3,141.69948,R,ugm-3
10-01-2019,13:00,31.87248,R,ugm-3,66.58434,R,ugm-3,115.45480,R,ugm-3
10-01-2019,14:00,33.50879,R,ugm-3,66.69437,R,ugm-3,118.07381,R,ugm-3
10-01-2019,15:00,40.16075,R,ugm-3,68.93516,R,ugm-3,130.51412,R,ugm-3
10-01-2019,16:00,28.56429,R,ugm-3,59.05283,R,ugm-3,102.85080,R,ugm-3
10-01-2019,17:00,42.18835,R,ugm-3,72.59199,R,ugm-3,137.27990,R,ugm-3
10-01-2019,18:00,43.36223,R,ugm-3,79.90406,R,ugm-3,146.39188,R,ugm-3
10-01-2019,19:00,31.19662,R,ugm-3,76.35069,R,ugm-3,124.18484,R,ugm-3
10-01-2019,20:00,22.80163,R,ugm-3,62.10513,R,ugm-3,97.06715,R,ugm-3
10-01-2019,21:00,17.46584,R,ugm-3,60.79265,R,ugm-3,87.57323,R,ugm-3
10-01-2019,22:00,7.47011,R,ugm-3,44.25456,R,ugm-3,55.70858,R,ugm-3
10-01-2019,23:00,8.07484,R,ugm-3,35.30661,R,ugm-3,47.68785,R,ugm-3
10-01-2019,24:00,8.60842,R,ugm-3,33.77915,R,ugm-3,46.97853,R,ugm-3
11-01-2019,01:00,2.56423,R,ugm-3,26.79768,R,ugm-3,30.72945,R,ugm-3
11-01-2019,02:00,0.94972,R,ugm-3,13.36367,R,ugm-3,14.81988,R,ugm-3
11-01-2019,03:00,1.13966,R,ugm-3,15.30630,R,ugm-3,17.05375,R,ugm-3
11-01-2019,04:00,0.85474,R,ugm-3,14.65347,R,ugm-3,15.96406,R,ugm-3
11-01-2019,05:00,0.46299,R,ugm-3,14.27343,R,ugm-3,14.98333,R,ugm-3
11-01-2019,06:00,4.09565,R,ugm-3,20.74457,R,ugm-3,27.02448,R,ugm-3
11-01-2019,07:00,12.53625,R,ugm-3,53.02491,R,ugm-3,72.24689,R,ugm-3
11-01-2019,08:00,52.49553,R,ugm-3,82.41763,R,ugm-3,162.90965,R,ugm-3
11-01-2019,09:00,56.19942,R,ugm-3,82.24138,R,ugm-3,168.41262,R,ugm-3
11-01-2019,10:00,,,,,,,,,
11-01-2019,11:00,,,,,,,,,
11-01-2019,12:00,26.99567,R,ugm-3,61.96495,R,ugm-3,103.35773,R,ugm-3
11-01-2019,13:00,19.12490,R,ugm-3,50.11445,R,ugm-3,79.43889,R,ugm-3
11-01-2019,14:00,23.04247,R,ugm-3,42.96340,R,ugm-3,78.29471,R,ugm-3
11-01-2019,15:00,19.62350,R,ugm-3,38.18055,R,ugm-3,68.26950,R,ugm-3
11-01-2019,16:00,22.47265,R,ugm-3,44.92683,R,ugm-3,79.38440,R,ugm-3
11-01-2019,17:00,13.78275,R,ugm-3,28.50243,R,ugm-3,49.63568,R,ugm-3
11-01-2019,18:00,9.22411,R,ugm-3,26.12085,R,ugm-3,40.26429,R,ugm-3
11-01-2019,19:00,7.30094,R,ugm-3,25.85507,R,ugm-3,37.04969,R,ugm-3
11-01-2019,20:00,5.34215,R,ugm-3,22.10238,R,ugm-3,30.29357,R,ugm-3
11-01-2019,21:00,3.38336,R,ugm-3,15.46200,R,ugm-3,20.64975,R,ugm-3
11-01-2019,22:00,2.24370,R,ugm-3,8.43740,R,ugm-3,11.87769,R,ugm-3
11-01-2019,23:00,1.21089,R,ugm-3,7.89612,R,ugm-3,9.75278,R,ugm-3
11-01-2019,24:00,1.10404,R,ugm-3,5.60812,R,ugm-3,7.30097,R,ugm-3
12-01-2019,01:00,1.56707,R,ugm-3,3.71444,R,ugm-3,6.11725,R,ugm-3
12-01-2019,02:00,1.13969,R,ugm-3,6.55449,R,ugm-3,8.30199,R,ugm-3
12-01-2019,03:00,0.74792,R,ugm-3,4.31504,R,ugm-3,5.46183,R,ugm-3
12-01-2019,04:00,1.06846,R,ugm-3,4.58821,R,ugm-3,6.22649,R,ugm-3
12-01-2019,05:00,0.74792,R,ugm-3,5.13431,R,ugm-3,6.28111,R,ugm-3
12-01-2019,06:00,0.99723,R,ugm-3,5.73518,R,ugm-3,7.26424,R,ugm-3
12-01-2019,07:00,1.53146,R,ugm-3,6.60920,R,ugm-3,8.95741,R,ugm-3
12-01-2019,08:00,2.38623,R,ugm-3,11.08812,R,ugm-3,14.74695,R,ugm-3
12-01-2019,09:00,5.02176,R,ugm-3,17.09680,R,ugm-3,24.79673,R,ugm-3
12-01-2019,10:00,6.69568,R,ugm-3,21.84902,R,ugm-3,32.11558,R,ugm-3
12-01-2019,11:00,8.69014,R,ugm-3,22.55956,R,ugm-3,35.88425,R,ugm-3
12-01-2019,12:00,11.78867,R,ugm-3,27.58522,R,ugm-3,45.66093,R,ugm-3
12-01-2019,13:00,12.39413,R,ugm-3,24.63599,R,ugm-3,43.64005,R,ugm-3
12-01-2019,14:00,9.04629,R,ugm-3,29.87851,R,ugm-3,43.74929,R,ugm-3
12-01-2019,15:00,10.36406,R,ugm-3,23.98006,R,ugm-3,39.87139,R,ugm-3
12-01-2019,16:00,15.06528,R,ugm-3,35.77880,R,ugm-3,58.87857,R,ugm-3
12-01-2019,17:00,9.40244,R,ugm-3,25.94608,R,ugm-3,40.36295,R,ugm-3
12-01-2019,18:00,10.18598,R,ugm-3,23.10612,R,ugm-3,38.72440,R,ugm-3
12-01-2019,19:00,4.87930,R,ugm-3,17.75219,R,ugm-3,25.23367,R,ugm-3
12-01-2019,20:00,7.97783,R,ugm-3,19.77384,R,ugm-3,32.00635,R,ugm-3
12-01-2019,21:00,3.88207,R,ugm-3,11.68930,R,ugm-3,17.64172,R,ugm-3
12-01-2019,22:00,4.91491,R,ugm-3,13.54658,R,ugm-3,21.08268,R,ugm-3
12-01-2019,23:00,3.27661,R,ugm-3,9.50441,R,ugm-3,14.52848,R,ugm-3
12-01-2019,24:00,3.52592,R,ugm-3,7.92055,R,ugm-3,13.32688,R,ugm-3
13-01-2019,01:00,2.04200,R,ugm-3,5.26426,R,ugm-3,8.39528,R,ugm-3
13-01-2019,02:00,1.46027,R,ugm-3,2.74337,R,ugm-3,4.98242,R,ugm-3
13-01-2019,03:00,0.96164,R,ugm-3,2.85090,R,ugm-3,4.32540,R,ugm-3
13-01-2019,04:00,1.03287,R,ugm-3,3.12494,R,ugm-3,4.70866,R,ugm-3
13-01-2019,05:00,1.10411,R,ugm-3,4.76778,R,ugm-3,6.46072,R,ugm-3
13-01-2019,06:00,0.60548,R,ugm-3,3.39701,R,ugm-3,4.32540,R,ugm-3
13-01-2019,07:00,1.46027,R,ugm-3,3.67415,R,ugm-3,5.91320,R,ugm-3
13-01-2019,08:00,1.95890,R,ugm-3,4.93542,R,ugm-3,7.93902,R,ugm-3
13-01-2019,09:00,3.63286,R,ugm-3,7.57013,R,ugm-3,13.14044,R,ugm-3
13-01-2019,10:00,2.31506,R,ugm-3,7.61967,R,ugm-3,11.16938,R,ugm-3
13-01-2019,11:00,4.30957,R,ugm-3,8.17508,R,ugm-3,14.78300,R,ugm-3
13-01-2019,12:00,14.49583,R,ugm-3,13.36207,R,ugm-3,35.58870,R,ugm-3
13-01-2019,13:00,15.63555,R,ugm-3,15.06388,R,ugm-3,39.03807,R,ugm-3
13-01-2019,14:00,11.36160,R,ugm-3,21.17918,R,ugm-3,38.60005,R,ugm-3
13-01-2019,15:00,16.09857,R,ugm-3,25.19481,R,ugm-3,49.87893,R,ugm-3
13-01-2019,16:00,14.53145,R,ugm-3,25.07910,R,ugm-3,47.36035,R,ugm-3
13-01-2019,17:00,11.86023,R,ugm-3,31.74826,R,ugm-3,49.93368,R,ugm-3
13-01-2019,18:00,8.79723,R,ugm-3,25.76818,R,ugm-3,39.25707,R,ugm-3
13-01-2019,19:00,12.60817,R,ugm-3,31.36795,R,ugm-3,50.70021,R,ugm-3
13-01-2019,20:00,7.87120,R,ugm-3,23.84820,R,ugm-3,35.91721,R,ugm-3
13-01-2019,21:00,10.36434,R,ugm-3,16.35707,R,ugm-3,32.24884,R,ugm-3
13-01-2019,22:00,5.09313,R,ugm-3,13.05110,R,ugm-3,20.86045,R,ugm-3
13-01-2019,23:00,3.31232,R,ugm-3,10.90873,R,ugm-3,15.98754,R,ugm-3
13-01-2019,24:00,4.80820,R,ugm-3,10.80514,R,ugm-3,18.17761,R,ugm-3
14-01-2019,01:00,4.55901,R,ugm-3,14.81739,R,ugm-3,21.80778,R,ugm-3
14-01-2019,02:00,0.99728,R,ugm-3,8.05749,R,ugm-3,9.58664,R,ugm-3
14-01-2019,03:00,0.67673,R,ugm-3,6.26212,R,ugm-3,7.29975,R,ugm-3
14-01-2019,04:00,1.56716,R,ugm-3,7.58619,R,ugm-3,9.98914,R,ugm-3
14-01-2019,05:00,1.78086,R,ugm-3,7.97202,R,ugm-3,10.70265,R,ugm-3
14-01-2019,06:00,5.94809,R,ugm-3,15.57814,R,ugm-3,24.69841,R,ugm-3
14-01-2019,07:00,10.00846,R,ugm-3,27.79380,R,ugm-3,43.13989,R,ugm-3
14-01-2019,08:00,17.13191,R,ugm-3,43.82003,R,ugm-3,70.08859,R,ugm-3
14-01-2019,09:00,45.23394,R,ugm-3,74.60653,R,ugm-3,143.96428,R,ugm-3
14-01-2019,10:00,78.28678,R,ugm-3,82.59867,R,ugm-3,202.63672,R,ugm-3
14-01-2019,11:00,34.97617,R,ugm-3,59.10514,R,ugm-3,112.73451,R,ugm-3
14-01-2019,12:00,31.37882,R,ugm-3,55.23560,R,ugm-3,103.34912,R,ugm-3
14-01-2019,13:00,32.09117,R,ugm-3,51.56374,R,ugm-3,100.76951,R,ugm-3
14-01-2019,14:00,34.54876,R,ugm-3,53.61333,R,ugm-3,106.58735,R,ugm-3
14-01-2019,15:00,17.70179,R,ugm-3,35.97579,R,ugm-3,63.11816,R,ugm-3
14-01-2019,16:00,15.67160,R,ugm-3,34.03925,R,ugm-3,58.06870,R,ugm-3
14-01-2019,17:00,16.49080,R,ugm-3,39.80849,R,ugm-3,65.09403,R,ugm-3
14-01-2019,18:00,20.47994,R,ugm-3,37.69853,R,ugm-3,69.10066,R,ugm-3
14-01-2019,19:00,8.90432,R,ugm-3,20.97956,R,ugm-3,34.63266,R,ugm-3
14-01-2019,20:00,4.06037,R,ugm-3,14.30131,R,ugm-3,20.52712,R,ugm-3
14-01-2019,21:00,3.38364,R,ugm-3,12.48491,R,ugm-3,17.67308,R,ugm-3
14-01-2019,22:00,6.19741,R,ugm-3,10.31105,R,ugm-3,19.81361,R,ugm-3
14-01-2019,23:00,2.95623,R,ugm-3,8.74943,R,ugm-3,13.28226,R,ugm-3
14-01-2019,24:00,1.99457,R,ugm-3,5.39405,R,ugm-3,8.45234,R,ugm-3
15-01-2019,01:00,0.85484,R,ugm-3,3.67764,R,ugm-3,4.98838,R,ugm-3
15-01-2019,02:00,0.61738,R,ugm-3,2.20777,R,ugm-3,3.15441,R,ugm-3
15-01-2019,03:00,0.67675,R,ugm-3,1.16309,R,ugm-3,2.20075,R,ugm-3
15-01-2019,04:00,0.67675,R,ugm-3,0.88800,R,ugm-3,1.92566,R,ugm-3
15-01-2019,05:00,0.42742,R,ugm-3,1.10524,R,ugm-3,1.76060,R,ugm-3
15-01-2019,06:00,1.03293,R,ugm-3,1.27718,R,ugm-3,2.86098,R,ugm-3
15-01-2019,07:00,1.06855,R,ugm-3,3.42332,R,ugm-3,5.06174,R,ugm-3
15-01-2019,08:00,5.02218,R,ugm-3,8.53000,R,ugm-3,16.23056,R,ugm-3
15-01-2019,09:00,10.18682,R,ugm-3,18.71219,R,ugm-3,34.33177,R,ugm-3
15-01-2019,10:00,9.26075,R,ugm-3,13.74997,R,ugm-3,27.94958,R,ugm-3
15-01-2019,11:00,6.44691,R,ugm-3,15.58862,R,ugm-3,25.47373,R,ugm-3
15-01-2019,12:00,4.95094,R,ugm-3,17.16716,R,ugm-3,24.75849,R,ugm-3
15-01-2019,13:00,7.62231,R,ugm-3,21.26892,R,ugm-3,32.95630,R,ugm-3
15-01-2019,14:00,6.98118,R,ugm-3,20.32631,R,ugm-3,31.03064,R,ugm-3
15-01-2019,15:00,5.37836,R,ugm-3,17.00696,R,ugm-3,25.25366,R,ugm-3